GW4151 Weather Reports


Display with metric or nautical units.
time (UTC)temp
F
wind
direction
speed
MPH
gust
MPH
rain 1hr
in
rain 24hr
in
rain mn
in
humidity
%
barometer
mb
20260503035455 42 187 2.0 3.0 0.00 0.00 0.00 57 995.4
20260503033953 42 167 1.0 7.0 0.00 0.00 0.00 53 995.5
20260503032452 42 176 1.0 3.0 0.00 0.00 0.00 56 995.5
20260503030949 42 134 2.0 3.0 0.00 0.00 0.00 57 995.6
20260503025445 42 173 2.0 3.0 0.00 0.00 0.00 57 995.8
20260503023942 42 212 2.0 3.0 0.00 0.00 0.00 59 996.1
20260503022437 42 205 2.0 4.0 0.00 0.00 0.00 60 996.1
20260503020933 42 187 0.0 4.0 0.00 0.00 0.00 61 996.1
20260503015430 42 193 2.0 3.0 0.00 0.00 0.00 60 996.2
20260503013927 42 208 2.0 3.0 0.00 0.00 0.00 60 996.0
20260503012425 42 235 2.0 4.0 0.00 0.00 0.00 58 996.1
20260503010921 43 197 0.0 3.0 0.00 0.00 0.00 56 996.1
20260503005418 44 169 0.0 3.0 0.00 0.00 0.00 54 996.1
20260503003914 44 206 4.0 7.0 0.00 0.00 0.00 51 996.3
20260503002412 46 237 2.0 7.0 0.00 0.00 0.00 50 996.2
20260503000908 47 238 4.0 6.0 0.00 0.00 0.00 47 996.4
20260502235405 47 254 2.0 6.0 0.00 0.00 0.00 46 996.5
20260502233901 48 135 2.0 4.0 0.00 0.00 0.00 46 996.3
20260502232356 49 226 4.0 6.0 0.00 0.00 0.00 44 996.4
20260502230855 49 313 2.0 4.0 0.00 0.00 0.00 44 996.5
20260502225352 49 230 2.0 4.0 0.00 0.00 0.00 40 996.6
20260502223848 49 172 2.0 7.0 0.00 0.00 0.00 41 996.6
20260502222347 49 273 4.0 7.0 0.00 0.00 0.00 40 996.6
20260502220842 49 245 6.0 9.0 0.00 0.00 0.00 39 996.6
20260502215338 50 56 2.0 7.0 0.00 0.00 0.00 40 996.7
20260502213834 49 282 6.0 7.0 0.00 0.00 0.00 40 996.8
20260502212334 49 276 6.0 9.0 0.00 0.00 0.00 41 996.7
20260502210829 49 236 3.0 10.0 0.00 0.00 0.00 40 996.9
20260502205325 49 288 8.0 10.0 0.00 0.00 0.00 42 997.1
20260502203822 49 239 7.0 11.0 0.00 0.00 0.00 41 997.3
20260502202318 48 282 6.0 10.0 0.00 0.00 0.00 45 997.4
20260502200814 47 215 7.0 9.0 0.00 0.00 0.00 47 997.6
20260502195310 48 288 10.0 16.0 0.00 0.00 0.00 46 997.9
20260502193805 48 264 9.0 14.0 0.00 0.00 0.00 46 997.9
20260502192301 48 216 5.0 10.0 0.00 0.00 0.00 48 998.1
20260502190758 48 221 9.0 15.0 0.00 0.00 0.00 47 998.3
20260502185258 47 287 8.0 11.0 0.00 0.00 0.00 50 998.5
20260502183754 48 298 8.0 11.0 0.00 0.00 0.00 45 998.4
20260502182253 47 289 8.0 14.0 0.00 0.00 0.00 47 998.9
20260502180752 48 274 10.0 13.0 0.00 0.00 0.00 47 998.6
20260502163731 46 242 8.0 9.0 0.00 0.00 0.00 50 998.8
20260502162228 47 317 5.0 9.0 0.00 0.00 0.00 51 998.9
20260502160726 46 292 11.0 14.0 0.00 0.00 0.00 48 999.2
20260502152223 45 145 5.0 10.0 0.00 0.00 0.00 53 999.1
20260502150721 45 354 2.0 9.0 0.00 0.00 0.00 53 999.0
20260502130653 42 10 3.0 7.0 0.00 0.00 0.00 69 999.2
20260502123647 41 183 2.0 2.0 0.00 0.00 0.00 76 999.2
20260502122143 39 197 0.0 2.0 0.00 0.00 0.00 80 999.2
20260502120641 39 24 2.0 3.0 0.00 0.00 0.00 80 999.2
20260502115137 38 185 0.0 1.0 0.00 0.00 0.00 82 999.2
20260502113634 38 197 0.0 0.0 0.00 0.00 0.00 83 998.9
20260502112133 33 197 0.0 0.0 0.00 0.00 0.00 93 999.1
20260502110631 30 186 0.0 0.0 0.00 0.00 0.00 94 998.9
20260502105128 29 194 0.0 0.0 0.00 0.00 0.00 93 998.8
20260502103626 29 174 0.0 0.0 0.00 0.00 0.00 93 998.8
20260502102123 29 200 0.0 0.0 0.00 0.00 0.00 92 999.0
20260502100623 30 200 0.0 0.0 0.00 0.00 0.00 91 998.9
20260502090615 32 200 0.0 0.0 0.00 0.00 0.00 86 998.5
20260502070553 37 243 1.0 2.0 0.00 0.00 0.00 73 998.4
20260502065052 37 217 0.0 0.0 0.00 0.00 0.00 74 998.4
20260502063550 37 275 0.0 3.0 0.00 0.00 0.00 71 998.3
20260502062049 37 256 1.0 2.0 0.00 0.00 0.00 71 998.6
20260502060544 37 212 0.0 2.0 0.00 0.00 0.00 71 998.6
20260502055044 37 207 1.0 2.0 0.00 0.00 0.00 71 998.6
20260502053541 37 234 1.0 2.0 0.00 0.00 0.00 71 998.6
20260502052040 37 226 1.0 1.0 0.00 0.00 0.00 71 998.5
20260502050537 37 206 0.0 0.0 0.00 0.00 0.00 70 998.5
20260502045034 37 228 1.0 2.0 0.00 0.00 0.00 69 998.4
20260502043530 37 220 0.0 1.0 0.00 0.00 0.00 69 998.4
20260502042025 38 259 1.0 4.0 0.00 0.00 0.00 67 998.2
20260502040522 38 303 0.0 7.0 0.00 0.00 0.00 66 998.3